Regional Weather Roundup
Issued by NWS

Home | Current Version | Previous Version | Text Only | Print | Product List | Glossary Off
Versions: 1 2 3 4 5 6 7 8 9 10 11 12 13 14 15 16 17 18 19 20 21 22 23 24 25 26 27 28 29 30 31 32 33 34 35 36 37 38 39 40 41 42 43 44 45 46 47 48 49 50

000
ASUS43 KLOT 202200
RWRIL

ILLINOIS REGIONAL WEATHER ROUNDUP
NATIONAL WEATHER SERVICE CHICAGO/ROMEOVILLE IL
500 PM CDT SUN APR 20 2014

NOTE: "FAIR" INDICATES FEW OR NO CLOUDS BELOW 12,000 FEET WITH NO
SIGNIFICANT WEATHER AND/OR OBSTRUCTIONS TO VISIBILITY.

* THESE STATIONS ARE NOT UNDER NWS QUALITY CONTROL. THEY ALSO MAY NOT
  REPORT WEATHER SUCH AS PRECIPITATION OR FOG.

ILZ001-002-007-009-015-016-024-202300-
NORTHWEST ILLINOIS

CITY           SKY/WX    TMP DP  RH WIND       PRES   REMARKS
MOLINE         MOSUNNY   81  45  28 SW7       30.00F HX  80
STERLING*      SUNNY     81  43  26 S9        30.02F
$$

ILZ003-004-008-010-011-017-018-202300-
NORTH CENTRAL ILLINOIS

CITY           SKY/WX    TMP DP  RH WIND       PRES   REMARKS
ROCKFORD       PTSUNNY   80  39  23 S9G21     30.05F
$$

ILZ005-006-012>014-019>023-202300-
NORTHEAST ILLINOIS

CITY           SKY/WX    TMP DP  RH WIND       PRES   REMARKS
CHICAGO-OHARE  PTSUNNY   78  39  24 S12       30.06F
CHICAGO-MIDWAY MOSUNNY   78  40  25 SW13      30.07F
AURORA         SUNNY     78  41  26 S13G20    30.07F
WAUKEGAN       MOSUNNY   66  38  35 SE12      30.07F
DUPAGE AIRPORT SUNNY     79  42  26 S15       30.06F
WHEELING       SUNNY     78  40  25 S9        30.07F
NORTHERLY ISL    N/A     61  40  45 CALM        N/A
$$

LMZ740>746-202300-
SOUTHERN LAKE MICHIGAN

STATION/POSITION SKY/WX   TEMP    WIND        PRES    VSBY  WAVE
                          AIR SEA DIR/SP/G                  HT/PER
                          (F)     (DEG/KT/KT) (MB)    (MI)  (FT/S)
WAUKEGAN HARBOR            54     200/  9/ 13 1020.0R
HARRISON CRIB              58     110/ 15/ 17   N/A
BURNHAM HARBOR             61     150/  2/ 12   N/A
CALUMET HARBOR             76     160/  7/ 12 1019.4F
MICHIGAN CITY              58      40/ 10/ 10   N/A
$$

ILZ025>027-034>036-040-047-049-050-058-095>099-202300-
WEST-CENTRAL ILLINOIS

CITY           SKY/WX    TMP DP  RH WIND       PRES   REMARKS
QUINCY         MOSUNNY   79  48  33 SW10      30.04F
$$

ILZ028>032-037-038-041>044-048-051>054-059>061-202300-
CENTRAL ILLINOIS

CITY           SKY/WX    TMP DP  RH WIND       PRES   REMARKS
DECATUR        MOSUNNY   77  42  28 S10       30.09F
PEORIA         MOSUNNY   81  42  25 SW9       30.04F
SPRINGFIELD    MOSUNNY   80  39  23 S13       30.07F
TAYLORVILLE    NOT AVBL
$$

ILZ033-039-045-046-055>057-062-063-202300-
EAST-CENTRAL ILLINOIS

CITY           SKY/WX    TMP DP  RH WIND       PRES   REMARKS
CHAMPAIGN      SUNNY     79  39  23 S8        30.10F
MATTOON        SUNNY     74  43  32 SW9       30.11F
$$

ILZ079-100>102-202300-
SOUTHWEST ILLINOIS

CITY           SKY/WX    TMP DP  RH WIND       PRES   REMARKS
BELLEVILLE     SUNNY     78  44  29 SE8       30.07F
CAHOKIA*       SUNNY     80  46  30 SE12      30.06F
$$

ILZ064>066-069>071-074>076-080>082-084>086-088>090-092>094-202300-
SOUTH-CENTRAL ILLINOIS

CITY           SKY/WX    TMP DP  RH WIND       PRES   REMARKS
CARBONDALE     MOSUNNY   77  46  33 SE7       30.09F
MARION         PTSUNNY   77  46  33 S9        30.12F
MT. VERNON     SUNNY     77  45  31 SW7       30.12S
$$

ILZ067-068-072-073-078-083-087-091-202300-
SOUTHEAST ILLINOIS

CITY           SKY/WX    TMP DP  RH WIND       PRES   REMARKS
$$

ABBREVIATIONS USED IN REMARKS
   TC - TEMPERATURE IN CELSIUS
  WCI - WIND CHILL INDEX
   HX - HEAT INDEX
  VSB - VISIBILITY
$$




USA.gov is the U.S. government's official web portal to all federal, state and local government web resources and services.